Location: Ocean City
(38.3360°N, 75.0850°W)
Time: 03:30:54
(UTC-05:00)

Explorer 11/Cluster Stage 4 - All Passes

Search period start: 14 November 2019 00:00
Search period end: 24 November 2019 00:00
Orbit: 467 x 1259 km, 28.8° (Epoch: 13 November)

Date Brightness Start Highest point End Pass type
(mag) Time Alt. Az. Time Alt. Az. Time Alt. Az.
14 Nov - 00:37:43 10° WSW 00:45:10 41° S 00:52:41 10° ESE night (unlit)
14 Nov - 02:27:09 10° WSW 02:33:49 28° SSW 02:40:10 10° SSE visible
14 Nov - 04:20:23 10° SW 04:21:50 11° SW 04:23:16 10° SSW visible
14 Nov - 20:51:37 10° SSW 20:57:01 25° SSE 21:03:05 10° ESE visible
14 Nov - 22:38:35 10° WSW 22:45:26 40° S 22:52:56 10° ESE night (unlit)
15 Nov - 00:26:55 10° WSW 00:34:14 40° S 00:41:44 10° ESE night (unlit)
15 Nov - 02:16:25 10° WSW 02:22:50 26° SSW 02:29:04 10° SSE visible
15 Nov - 20:40:45 10° SSW 20:46:07 26° SSE 20:52:14 10° ESE visible
15 Nov - 22:27:49 10° WSW 22:34:30 40° S 22:41:59 10° ESE night (unlit)
16 Nov - 00:16:09 10° WSW 00:23:17 38° S 00:30:45 10° SE night (unlit)
16 Nov - 02:05:44 10° WSW 02:11:52 23° SSW 02:17:54 10° SSE night (unlit)
16 Nov - 20:29:56 10° SW 20:35:13 27° SSE 20:41:20 10° ESE visible
16 Nov - 22:17:06 10° WSW 22:23:36 40° S 22:31:01 10° ESE night (unlit)
17 Nov - 00:05:26 10° WSW 00:12:20 36° S 00:19:42 10° SE night (unlit)
17 Nov - 01:55:09 10° WSW 02:00:54 21° SSW 02:06:38 10° SSE night (unlit)
17 Nov - 18:35:14 10° SSE 18:36:42 11° SSE 18:38:13 10° SE visible
17 Nov - 20:19:10 10° SW 20:24:21 28° SSE 20:30:26 10° ESE visible
17 Nov - 22:06:25 10° WSW 22:12:43 40° S 22:20:00 10° ESE night (unlit)
17 Nov - 23:54:46 10° WSW 00:01:25 34° SSW 00:08:37 10° SE night (unlit)
18 Nov - 01:44:41 10° WSW 01:49:55 19° SSW 01:55:14 10° SSE night (unlit)
18 Nov - 18:23:51 10° S 18:25:51 12° SSE 18:27:59 10° SE visible
18 Nov - 20:08:28 10° SW 20:13:31 29° SSE 20:19:30 10° ESE visible
18 Nov - 21:55:46 10° WSW 22:01:51 39° S 22:08:58 10° ESE night (unlit)
18 Nov - 23:44:08 10° WSW 23:50:30 32° SSW 23:57:27 10° SE night (unlit)
19 Nov - 01:34:20 10° WSW 01:38:58 17° SSW 01:43:41 10° S night (unlit)
19 Nov - 18:12:43 10° S 18:15:01 13° SSE 18:17:31 10° SE visible
19 Nov - 19:57:49 10° SW 20:02:41 30° SSE 20:08:32 10° ESE visible
19 Nov - 21:45:09 10° WSW 21:51:00 37° S 21:57:55 10° ESE night (unlit)
19 Nov - 23:33:34 10° WSW 23:39:35 29° SSW 23:46:15 10° SE night (unlit)
20 Nov - 01:24:12 10° WSW 01:28:00 14° SSW 01:31:55 10° S night (unlit)
20 Nov - 18:01:44 10° S 18:04:14 14° SSE 18:06:58 10° ESE visible
20 Nov - 19:47:11 10° SW 19:51:54 30° SSE 19:57:36 10° ESE visible
20 Nov - 21:34:35 10° WSW 21:40:11 36° S 21:46:51 10° ESE night (unlit)
20 Nov - 23:23:03 10° WSW 23:28:42 26° SSW 23:34:59 10° SE night (unlit)
21 Nov - 01:14:30 10° SW 01:17:04 12° SSW 01:19:42 10° S night (unlit)
21 Nov - 17:50:51 10° S 17:53:27 15° SSE 17:56:20 10° ESE visible
21 Nov - 19:36:36 10° SW 19:41:09 30° S 19:46:38 10° ESE visible
21 Nov - 21:24:03 10° WSW 21:29:22 33° S 21:35:45 10° ESE night (unlit)
21 Nov - 23:12:38 10° WSW 23:17:49 23° SSW 23:23:38 10° SSE night (unlit)
22 Nov - 17:40:02 10° SSW 17:42:42 15° SSE 17:45:40 10° ESE visible
22 Nov - 19:26:03 10° SW 19:30:24 30° S 19:35:40 10° ESE visible
22 Nov - 21:13:34 10° WSW 21:18:36 31° S 21:24:37 10° SE night (unlit)
22 Nov - 23:02:18 10° WSW 23:06:58 20° SSW 23:12:12 10° SSE night (unlit)
23 Nov - 17:29:17 10° SSW 17:31:59 16° SSE 17:34:59 10° ESE visible
23 Nov - 19:15:32 10° SW 19:19:41 29° S 19:24:42 10° ESE visible
23 Nov - 21:03:07 10° WSW 21:07:50 28° S 21:13:28 10° SE night (unlit)
23 Nov - 22:52:05 10° WSW 22:56:08 17° SSW 23:00:37 10° SSE night (unlit)
